STARLINK-30447, 57874

Orbit data source: Space-Track

STARLINK-30447, 57874 is a payload satellite owned by SpaceX/Seattle (US) in LEO that was launched on Sat, 16 Sep 2023 UTC via an FALCON 9 launch vehicle from the Air Force Eastern Test Range (AFETR). Payload-class satellites include a variety of spacecraft equipped with specific instruments for various scientific and technological missions. These include communications satellites like Starlink; space stations such as the ISS; scientific satellites like the Hubble; Earth observation satellites from companies like Planet Labs, Umbra, and HawkEye 360; GPS; miniature CubeSats for education and research; and military/defense satellites.

Loading next visibility...
Identifier
57874, 2023-144L
Orbit
LEO
Country
Flag of USUS
Related business
Manufacturer
SpaceX/Seattle
Mission
Operational Commercial Communications
Bus & Motor
STARLINK V2M, Unknown motor
Mass
730 kg wet, ~700 kg dry
Launch date (UTC)
2023-09-16 (2 years ago)
Launch vehicle
FALCON 9
Launch site
Air Force Eastern Test Range (AFETR)
Object type
Payload
Rocket body
Debris
Shape & HBR
Box + 2 Pan, 17.7 m
Radar Cross Section
33.884 m², Large (>1 m²)

Expand to show TLE details & history
Last TLE update: 1 day ago

TLE from 1 day ago
0 STARLINK-30447
1 57874U 23144L   25348.33594598  .00000000  00000-0  15085-4 0  9996
2 57874  43.0043   5.7840 0001084 264.4533  95.6185 15.02532996125061
Epoch: 2025-12-14T08:03Z
TLE epoch observation values (Epoch: 2025-12-14T08:03:45.732Z)
Latitude
-0.00008°
Longitude
161.59304°
Altitude
558.941 km
Speed
7.584 km/s
True Right ascension
00h 23m 08s
True Declination
0° 00' 00"
Sunlit
Object was in daylight at epoch
Visualization orbit readout
Latitude
Unknown
Longitude
Unknown
Altitude
Unknown
Speed
Unknown
Apparent Right ascension
Unknown
Apparent Declination
Unknown
Sunlit
N/A
Visualization observer readout
Local Sidereal Time
17:22:57
Azimuth
Unknown
Elevation
Unknown
Doppler factor
Unknown
Orbital elements
Apogee altitude
561.764 km
Perigee altitude
560.26 km
Semi-major axis
6,939.149 km
Eccentricity
0.00011
Inclination
43.0043°
RAAN
5.784°
Arg. of periapsis
264.4533°
True anomaly
95.63086°
Mean anomaly
95.6185°
Eccentric anomaly
95.62468°
Mean motion
3.75477 °/min
Orbital period
95.88 mins
BSTAR
0.000015085
Loading maneuver chart data...
Computing Atmospheric mass density...
Loading historical data...
Loading historical data...
Loading historical data...
Loading historical data...
Loading historical data...
Loading historical data...
Loading historical data...

Documentation

Showing up to 5 results
|